Location: Helsinki
(60.1699°N, 24.9384°E)
Time: 09:46:12
(UTC+02:00)

Vanguard 2 Rocket - Pass Details

Date: 24 September 2023
Orbit: 552 x 3312 km, 32.9° (Epoch: 05 December)

Event Time Altitude Azimuth Distance (km) Brightness Sun altitude
Rises 18:59:44 0° 263° (W) 7,143 14.9 1.1°
Reaches altitude 10° 19:10:05 10° 238° (WSW) 5,605 12.0 -0.2°
Maximum altitude 19:14:02 11° 223° (SW) 5,211 11.5 -0.7°
Drops below altitude 10° 19:17:39 10° 209° (SSW) 5,019 11.1 -1.1°
Sets 19:25:06 0° 179° (S) 5,286 10.8 -2.1°
